This demonstration page uses our WeatherBlox Daily Observations layout. Learn more.

Left ArrowRight Arrow

40.92945, -100.16068

Hourly Observations for February 23, 2022

Temp ( °F °C ) Dew Point ( °F °C ) Humidity (%) Winds ( mph kmh ) Pressure ( in mb ) Visibility ( mi km ) Precip ( " mm )
12:15 am 00:15 Mostly Cloudy -2 -19 -12 -24.2 64 64 NNW 15 24 30.87 1045 10 16 0.00 0.00
12:35 am 00:35 Mostly Cloudy -2 -18.9 -11 -24.1 64 64 NNW 13 20 30.88 1046 10 16 0.00 0.00
12:55 am 00:55 Cloudy -2 -19 -12 -24.3 63 63 N 17 28 30.88 1046 10 16 0.00 0.00
1:15 am 01:15 Cloudy -2 -18.9 -12 -24.2 63 63 N 17 28 30.88 1046 10 16 0.00 0.00
1:35 am 01:35 Cloudy -2 -18.8 -11 -24.1 63 63 N 14 22 30.87 1046 10 16 0.00 0.00
1:55 am 01:55 Cloudy -2 -19 -12 -24.4 63 63 N 17 28 30.89 1046 10 16 0.00 0.00
2:15 am 02:15 Cloudy -3 -19.2 -12 -24.5 63 63 N 15 24 30.88 1046 10 16 0.00 0.00
2:35 am 02:35 Cloudy -2 -19 -12 -24.3 63 63 N 17 28 30.88 1046 10 16 0.00 0.00
2:55 am 02:55 Cloudy -2 -19 -12 -24.3 63 63 N 15 24 30.87 1045 10 16 0.00 0.00
3:15 am 03:15 Cloudy -2 -19 -12 -24.3 63 63 N 14 22 30.87 1045 10 16 0.00 0.00
3:35 am 03:35 Cloudy -2 -19.1 -12 -24.3 64 64 N 14 22 30.88 1046 10 16 0.00 0.00
3:55 am 03:55 Cloudy -2 -19 -12 -24.2 64 64 N 13 20 30.88 1046 10 16 0.00 0.00
4:15 am 04:15 Cloudy -2 -18.9 -11 -24.1 64 64 N 14 22 30.88 1046 10 16 0.00 0.00
4:35 am 04:35 Cloudy -2 -19 -12 -24.3 63 63 N 16 26 30.86 1045 10 16 0.00 0.00
4:55 am 04:55 Cloudy -2 -18.8 -11 -24.1 63 63 N 15 24 30.85 1045 10 16 0.00 0.00
5:15 am 05:15 Cloudy -2 -18.9 -12 -24.4 62 62 N 14 22 30.88 1046 10 16 0.00 0.00
5:35 am 05:35 Cloudy -2 -18.8 -12 -24.5 61 61 N 16 26 30.86 1045 10 16 0.00 0.00
5:55 am 05:55 Cloudy -2 -18.9 -12 -24.6 61 61 N 13 20 30.88 1046 10 16 0.00 0.00
6:15 am 06:15 Cloudy -2 -19 -12 -24.6 61 61 N 10 17 30.88 1046 10 16 0.00 0.00
6:35 am 06:35 Cloudy -2 -18.9 -13 -24.8 60 60 NNE 12 19 30.87 1045 10 16 0.00 0.00
6:55 am 06:55 Cloudy -2 -18.8 -12 -24.6 60 60 N 10 17 30.86 1045 10 16 0.00 0.00
7:15 am 07:15 Cloudy -2 -18.8 -12 -24.7 60 60 N 9 15 30.86 1045 10 16 0.00 0.00
7:35 am 07:35 Cloudy -2 -18.7 -13 -25.1 57 57 NNE 9 15 30.87 1045 10 16 0.00 0.00
7:50 am 07:50 Cloudy -1 -18.5 -13 -24.9 57 57 N 10 17 30.86 1045 10 16 0.00 0.00
8:15 am 08:15 Cloudy -1 -18.5 -13 -25.1 56 56 NNE 9 15 30.85 1045 10 16 0.00 0.00
8:35 am 08:35 Cloudy -1 -18.1 -13 -25 55 55 N 12 19 30.86 1045 10 16 0.00 0.00
8:55 am 08:55 Cloudy 0 -17.6 -14 -25.4 51 51 NNE 14 22 30.84 1044 10 16 0.00 0.00
9:15 am 09:15 Cloudy 1 -17.4 -14 -25.5 50 50 N 13 20 30.85 1045 10 16 0.00 0.00
9:35 am 09:35 Cloudy 2 -16.7 -14 -25.6 46 46 NNE 13 20 30.84 1044 10 16 0.00 0.00
9:55 am 09:55 Cloudy 2 -16.9 -14 -25.8 46 46 NNE 9 15 30.84 1044 10 16 0.00 0.00
10:15 am 10:15 Partly Cloudy 3 -16.1 -14 -25.6 44 44 NNE 13 20 30.82 1044 10 16 0.00 0.00
10:35 am 10:35 Partly Cloudy 4 -15.5 -14 -25.4 43 43 N 8 13 30.83 1044 10 16 0.00 0.00
10:55 am 10:55 Sunny 5 -15.2 -14 -25.5 41 41 ENE 7 11 30.81 1043 10 16 0.00 0.00
11:15 am 11:15 Partly Cloudy 6 -14.4 -13 -25.2 40 40 NNE 9 15 30.80 1043 10 16 0.00 0.00
11:35 am 11:35 Partly Cloudy 7 -14.1 -13 -24.9 40 40 ENE 7 11 30.80 1043 10 16 0.00 0.00
11:55 am 11:55 Sunny 7 -13.8 -13 -25.1 38 38 NE 7 11 30.79 1043 10 16 0.00 0.00
12:15 pm 12:15 Sunny 8 -13.2 -13 -24.8 37 37 N 8 13 30.77 1042 10 16 0.00 0.00
12:35 pm 12:35 Mostly Cloudy 9 -12.6 -12 -24.3 37 37 ENE 8 13 30.74 1041 10 16 0.00 0.00
12:55 pm 12:55 Mostly Cloudy 10 -12.2 -12 -24.4 36 36 E 5 7 30.72 1040 10 16 0.00 0.00
1:15 pm 13:15 Mostly Cloudy 10 -12.4 -12 -24.2 37 37 NE 9 15 30.69 1039 10 16 0.00 0.00
1:35 pm 13:35 Mostly Cloudy 10 -12.1 -12 -24.3 36 36 ENE 13 20 30.68 1039 10 16 0.00 0.00
1:55 pm 13:55 Partly Cloudy 10 -12 -12 -24.2 36 36 N 5 7 30.66 1038 10 16 0.00 0.00
2:15 pm 14:15 Sunny 12 -11.3 -11 -23.9 35 35 E 9 15 30.64 1037 10 16 0.00 0.00
2:35 pm 14:35 Sunny 12 -11.3 -11 -24.1 34 34 E 10 17 30.63 1037 10 16 0.00 0.00
2:55 pm 14:55 Sunny 12 -11 -12 -24.3 33 33 ENE 9 15 30.60 1036 10 16 0.00 0.00
3:15 pm 15:15 Sunny 13 -10.7 -11 -24.1 33 33 ENE 9 15 30.60 1036 10 16 0.00 0.00
3:35 pm 15:35 Sunny 13 -10.7 -11 -24 33 33 NNE 8 13 30.60 1036 10 16 0.00 0.00
3:55 pm 15:55 Partly Cloudy 13 -10.5 -11 -24.1 32 32 ENE 8 13 30.60 1036 10 16 0.00 0.00
4:15 pm 16:15 Mostly Cloudy 13 -10.3 -11 -24.1 32 32 ENE 7 11 30.58 1035 10 16 0.00 0.00
4:35 pm 16:35 Mostly Cloudy 14 -10.1 -12 -24.4 30 30 ESE 7 11 30.57 1035 10 16 0.00 0.00
4:55 pm 16:55 Partly Cloudy 13 -10.4 -12 -24.6 30 30 ENE 9 15 30.58 1035 10 16 0.00 0.00
5:15 pm 17:15 Cloudy 12 -11 -12 -24.6 32 32 E 9 15 30.57 1035 10 16 0.00 0.00
5:35 pm 17:35 Partly Cloudy 13 -10.8 -12 -24.6 31 31 ENE 9 15 30.58 1036 10 16 0.00 0.00
5:55 pm 17:55 Sunny 12 -11.3 -12 -24.6 33 33 NE 14 22 30.59 1036 10 16 0.00 0.00
6:15 pm 18:15 Sunny 11 -11.7 -12 -24.5 34 34 NE 10 17 30.59 1036 10 16 0.00 0.00
6:35 pm 18:35 Clear 10 -12.5 -12 -24.6 36 36 NE 12 19 30.60 1036 10 16 0.00 0.00
6:55 pm 18:55 Clear 9 -12.9 -12 -24.7 37 37 ENE 12 19 30.60 1036 10 16 0.00 0.00
7:15 pm 19:15 Clear 8 -13.6 -13 -25.1 38 38 NE 14 22 30.61 1037 10 16 0.00 0.00
7:35 pm 19:35 Clear 7 -14.1 -13 -25.1 39 39 NE 10 17 30.63 1037 10 16 0.00 0.00
7:55 pm 19:55 Clear 6 -14.5 -13 -25 41 41 NE 9 15 30.63 1037 10 16 0.00 0.00
8:15 pm 20:15 Clear 5 -14.8 -13 -25.1 41 41 NE 10 17 30.64 1037 10 16 0.00 0.00
8:35 pm 20:35 Clear 5 -15 -13 -25 42 42 ENE 9 15 30.64 1038 10 16 0.00 0.00
8:55 pm 20:55 Clear 5 -15.2 -13 -24.8 44 44 ENE 9 15 30.64 1038 10 16 0.00 0.00
9:15 pm 21:15 Clear 4 -15.8 -13 -25 45 45 NE 7 11 30.67 1039 10 16 0.00 0.00
9:35 pm 21:35 Clear 3 -16.3 -13 -25 47 47 NE 8 13 30.67 1039 10 16 0.00 0.00
9:55 pm 21:55 Clear 2 -16.5 -12 -24.6 50 50 NE 8 13 30.68 1039 10 16 0.00 0.00
10:15 pm 22:15 Clear 2 -16.8 -11 -24.1 53 53 NE 9 15 30.68 1039 10 16 0.00 0.00
10:35 pm 22:35 Clear 1 -17.1 -10 -23.6 57 57 NE 9 15 30.67 1039 10 16 0.00 0.00
10:55 pm 22:55 Clear 1 -17.5 -10 -23.2 61 61 NE 8 13 30.67 1038 10 16 0.00 0.00
11:15 pm 23:15 Clear 0 -17.7 -10 -23.1 63 63 ENE 7 11 30.66 1038 10 16 0.00 0.00
11:35 pm 23:35 Clear -1 -18.1 -9 -23 66 66 ENE 7 11 30.66 1038 10 16 0.00 0.00
11:55 pm 23:55 Clear -1 -18.2 -9 -23 66 66 ENE 8 13 30.64 1038 10 16 0.00 0.00

Powered by AerisWeather